CZ-6A DEB, 61128

Orbit data source: Space-Track

CZ-6A DEB, 61128 is space debris in LEO originally from a launch on Tue, 06 Aug 2024 UTC launched from the Taiyaun Space Center, China (TSC). Debris objects in space refer to the collection of defunct objects orbiting the Earth. Examples of debris include non-operational satellites, rocket bodies, and fragments generated from explosions, collisions, or faulty payload assembly.

Loading next visibility...
Identifier
61128, 2024-140PW
Orbit
LEO
Country
Flag of CNCN / PRC
Related business
Manufacturer
SAST
Mission
Spacecraft
Bus & Motor
Unknown
Mass
Unknown
Launch date (UTC)
2024-08-06 (2 years ago)
Launch vehicle
Unknown
Launch site
Taiyaun Space Center, China (TSC)
Object type
Payload
Rocket body
Debris
Shape & HBR
Unknown shape, 0.1 m
Radar Cross Section
Medium (>0.1 m² and <1 m²)

Expand to show TLE details & history
Last TLE update: 1 day ago

TLE from 1 day ago
0 CZ-6A DEB
1 61128U 24140PW  26170.56892353  .00002466  00000-0  43516-3 0  9996
2 61128  89.1458 281.6378 0119675 234.5931 124.4060 14.62576015 97286
Epoch: 2026-06-19T13:39Z
TLE epoch observation values (Epoch: 2026-06-19T13:39:14.992Z)
Latitude
0.00001°
Longitude
169.02931°
Altitude
736.437 km
Speed
7.461 km/s
True Right ascension
18h 46m 33s
True Declination
0° 00' 00"
Sunlit
Object was in full shadow at epoch
Visualization orbit readout
Latitude
Unknown
Longitude
Unknown
Altitude
Unknown
Speed
Unknown
Apparent Right ascension
Unknown
Apparent Declination
Unknown
Sunlit
N/A
Visualization observer readout
Local Sidereal Time
07:24:09
Azimuth
Unknown
Elevation
Unknown
Doppler factor
Unknown
Orbital elements
Apogee altitude
766.247 km
Perigee altitude
597.268 km
Semi-major axis
7,059.894 km
Eccentricity
0.01197
Inclination
89.1458°
RAAN
281.6378°
Arg. of periapsis
234.5931°
True anomaly
125.5279°
Mean anomaly
124.406°
Eccentric anomaly
124.9679°
Mean motion
3.65886 °/min
Orbital period
98.39 mins
BSTAR
0.00043516
Loading maneuver chart data...
Computing Atmospheric mass density...
Loading historical data...
Loading historical data...
Loading historical data...
Loading historical data...
Loading historical data...
Loading historical data...
Loading historical data...

Documentation

Showing up to 5 results
|